Tracking 31027 objects as of 19-Jul-2025
HD Live streaming from Space Station
objects crossing your sky now

ARIANE 2 DEB

Track ARIANE 2 DEB now!


NORAD ID: 28566
Int'l Code: 1989-006AH
Perigee: 722.0 km
Apogee: 35,159.5 km
Inclination: 7.2 °
Period: 628.8 minutes
Semi major axis: 24311 km
RCS: 0.1259 m2 (medium)
Launch date: January 27, 1989
Source: France (FR)
Launch site: FRENCH GUIANA (FRGUI)

Note: This is SATELLITE DEBRIS
Your satellite tracking list
STARLINK-31009
Track 1 satellite(s)




NASA's NSSDC Master Catalog

Two Line Element Set (TLE):
1 28566U 89006AH  25193.35102337  .00022865  00000-0  63115+0 0  9992
2 28566   7.2067 316.6329 7082492 344.4486   1.8176  2.29022958104744
Source of the keplerian elements: AFSPC